This is the latest recevied weather packets stored in our database for station/object KD8OZS. If no packets are shown the sender has not sent any weather packets the latest 10 day(s).
| Time | Temp. | Humidity | Pressure | Rain* | Wind** | Luminosity | Snow |
|---|---|---|---|---|---|---|---|
| 1787804726 | 20.56° C | 85% | 1006.4 hPa | 0 mm | - | 0 W/m² | - |
| 1787804420 | 20.56° C | 84% | 1006.5 hPa | 0 mm | - | 0 W/m² | - |
| 1787804115 | 20.56° C | 84% | 1006.5 hPa | 0 mm | - | 0 W/m² | - |
| 1787803810 | 20.56° C | 85% | 1006.4 hPa | 0 mm | - | 0 W/m² | - |
| 1787803509 | 20.56° C | 84% | 1006.4 hPa | 0 mm | - | 0 W/m² | - |
| 1787803207 | 20.56° C | 82% | 1006.2 hPa | 0 mm | - | 0 W/m² | - |
| 1787802904 | 20.56° C | 83% | 1006.1 hPa | 0 mm | - | 0 W/m² | - |
| 1787802602 | 20° C | 85% | 1006.1 hPa | 0 mm | - | 0 W/m² | - |
| 1787802301 | 20° C | 88% | 1006.5 hPa | 0 mm | - | 0 W/m² | - |
| 1787801997 | 20° C | 88% | 1006.6 hPa | 0 mm | - | 0 W/m² | - |
| 1787801692 | 20° C | 86% | 1006.2 hPa | 0 mm | - | 0 W/m² | - |
| 1787801391 | 20° C | 87% | 1006.3 hPa | 0 mm | - | 0 W/m² | - |
| 1787801090 | 20° C | 86% | 1006.3 hPa | 0 mm | - | 0 W/m² | - |
| 1787800784 | 20° C | 87% | 1006.6 hPa | 0 mm | - | 0 W/m² | - |
| 1787800480 | 20° C | 88% | 1006.6 hPa | 0 mm | - | 0 W/m² | - |
| 1787800176 | 20.56° C | 88% | 1006.7 hPa | 0 mm | - | 0 W/m² | - |
| 1787799874 | 20.56° C | 86% | 1006.6 hPa | 0 mm | - | 0 W/m² | - |
| 1787799571 | 21.11° C | 81% | 1006.7 hPa | 0 mm | - | 0 W/m² | - |
| 1787799266 | 20.56° C | 82% | 1006.7 hPa | 0 mm | - | 0 W/m² | - |
| 1787798965 | 20° C | 85% | 1006.8 hPa | 0 mm | - | 0 W/m² | - |
| 1787798660 | 20.56° C | 87% | 1006.7 hPa | 0 mm | - | 0 W/m² | - |
| 1787798355 | 20.56° C | 86% | 1006.7 hPa | 0 mm | - | 0 W/m² | - |
| 1787798055 | 20.56° C | 86% | 1006.9 hPa | 0 mm | - | 0 W/m² | - |
| 1787797748 | 21.11° C | 84% | 1006.7 hPa | 0 mm | - | 0 W/m² | - |
| 1787797444 | 21.11° C | 82% | 1006.7 hPa | 0 mm | - | 0 W/m² | - |
* Rain latest hour (hover to see other rain measurements)
** Current wind speed in m/s (hover to see current wind gust speed)